Hourly Data Report for April 28, 2021

KENORA A
ONTARIO
Current Station Operator: NAVCAN

49°47'18.000" N
94°21'47.000" W
409.70 m
6034076
71850
YQK

Download Data

Hourly Data (April 2021)
Hourly Data Report for April 28, 2021
TIME
LST
Temp Definition
°C
Dew Point Definition
°C
Rel Hum Definition
%
Precip. Amount Definition
mm

Wind Dir Definition
10's deg

Wind Spd Definition
km/h
Visibility Definition
km
Stn Press Definition
kPa
Hmdx Definition


Wind Chill Definition


Weather Definition


00:00 8.2 -0.6 54   21 6 32.2 96.69     Clear
01:00 6.2 -0.6 62   20 5 32.2 96.68     LegendNANA
02:00 5.6 -0.2 66   24 5 32.2 96.67     LegendNANA
03:00 6.4 0.5 66   28 7 32.2 96.68     Clear
04:00 4.3 0.4 76   24 4 32.2 96.70     LegendNANA
05:00 4.6 0.5 75   19 13 32.2 96.69     LegendNANA
06:00 5.3 0.9 73   20 3 32.2 96.73     Mainly Clear
07:00 7.2 1.3 66   17 7 32.2 96.74     LegendNANA
08:00 9.6 1.7 58   19 8 32.2 96.74     LegendNANA
09:00 12.3 1.6 48   24 14 32.2 96.74     Mostly Cloudy
10:00 13.1 0.9 43   21 16 32.2 96.71     LegendNANA
11:00 14.9 1.5 40   21 18 32.2 96.65     LegendNANA
12:00 15.6 0.3 35   20 15 32.2 96.57     Mostly Cloudy
13:00 16.8 -1.6 28   20 17 32.2 96.51     LegendNANA
14:00 18.0 -0.8 28   20 14 32.2 96.46     LegendNANA
15:00 18.3 -3.9 22   19 15 32.2 96.39     Mostly Cloudy
16:00 17.3 -4.4 22   19 17 32.2 96.33     LegendNANA
17:00 16.4 -5.1 22   21 10 32.2 96.31     LegendNANA
18:00 16.1 -4.3 24   22 21 32.2 96.26     Cloudy
19:00 14.3 1.0 40   21 11 32.2 96.25     LegendNANA
20:00 11.3 4.5 63   31 19 24.1 96.33     Rain Showers
21:00 5.6 1.1 73   35 21 32.2 96.39     Cloudy
22:00 4.3 1.3 81   36 19 32.2 96.44     LegendNANA
23:00 4.4 1.7 82   36 23 32.2 96.47     LegendNANA

Notes on Data Quality.

Legend

  • E = Estimated
  • M = Missing
  • NA = Not Available*
  • [empty] = Indicates an unobserved value
Date modified: